EW1479 Weather Reports


time (UTC)temp
C
wind
direction
speed
KPH
gust
KPH
rain 1hr
cm
rain 24hr
cm
rain mn
cm
humidity
%
barometer
mb
20260504044824 10 220 4.8 11.3 0.00 0.00 0.00 58 1013.7
20260504043318 11 242 4.8 11.3 0.00 0.00 0.00 59 1013.8
20260504041825 11 246 9.7 14.5 0.00 0.00 0.00 58 1013.8
20260504040318 11 217 9.7 12.9 0.00 0.00 0.00 58 1013.8
20260504034810 11 219 6.4 12.9 0.00 0.00 0.00 58 1013.7
20260504033328 11 226 8.0 19.3 0.00 0.00 0.00 59 1013.8
20260504031815 11 226 8.0 12.9 0.00 0.00 0.00 60 1013.8
20260504030311 11 220 6.4 11.3 0.00 0.00 0.00 59 1013.8
20260504024817 11 233 6.4 11.3 0.00 0.00 0.00 58 1013.8
20260504023330 12 231 8.0 20.9 0.00 0.00 0.00 55 1013.9
20260504021822 12 264 9.7 33.8 0.00 0.00 0.00 53 1014.1
20260504020328 12 252 11.3 32.2 0.00 0.00 0.00 54 1013.9
20260504014824 12 278 16.1 29.0 0.00 0.00 0.00 54 1014.2
20260504013312 12 273 9.7 19.3 0.00 0.00 0.00 51 1014.2
20260504011826 12 267 11.3 27.4 0.00 0.00 0.00 52 1013.9
20260504010315 12 263 14.5 30.6 0.00 0.00 0.00 52 1014.1
20260504004825 12 250 19.3 38.6 0.00 0.00 0.00 51 1014.2
20260504003315 12 264 19.3 30.6 0.00 0.00 0.00 51 1014.3
20260504001826 12 273 19.3 43.5 0.00 0.00 0.00 49 1014.4
20260504000311 12 243 11.3 29.0 0.00 0.00 0.00 49 1014.3
20260503234824 12 274 9.7 25.7 0.00 0.00 0.00 49 1014.2
20260503233320 12 289 19.3 32.2 0.00 0.00 0.00 48 1014.2
20260503231810 12 284 27.4 40.2 0.00 0.00 0.00 46 1014.1
20260503230343 13 291 20.9 38.6 0.00 0.00 0.00 47 1014.1
20260503224834 13 275 22.5 43.5 0.00 0.00 0.00 46 1013.9
20260503223322 13 307 17.7 40.2 0.00 0.00 0.00 43 1013.6
20260503221835 13 275 11.3 25.7 0.00 0.00 0.00 44 1013.5
20260503220324 13 275 16.1 29.0 0.00 0.00 0.00 43 1013.6
20260503214836 13 250 11.3 32.2 0.00 0.00 0.00 43 1013.4
20260503213324 13 256 22.5 37.0 0.00 0.00 0.00 40 1013.4
20260503211820 14 270 16.1 37.0 0.00 0.00 0.00 42 1013.3
20260503210354 15 253 16.1 30.6 0.00 0.00 0.00 42 1013.3
20260503204841 14 290 14.5 24.1 0.00 0.00 0.00 44 1013.5
20260503203311 13 293 17.7 35.4 0.00 0.00 0.00 43 1013.6
20260503201843 13 269 8.0 12.9 0.00 0.00 0.00 46 1013.9
20260503200311 12 272 6.4 17.7 0.00 0.00 0.00 48 1014.1
20260503194823 12 250 8.0 14.5 0.00 0.00 0.00 45 1014.4
20260503193313 12 287 9.7 19.3 0.00 0.00 0.00 46 1014.7
20260503191824 12 252 4.8 22.5 0.00 0.00 0.00 49 1014.9
20260503190338 12 260 8.0 16.1 0.00 0.00 0.00 48 1015.1
20260503184824 12 245 11.3 25.7 0.00 0.00 0.00 46 1015.3
20260503183321 11 273 14.5 29.0 0.00 0.00 0.00 44 1015.6
20260503181833 11 257 14.5 25.7 0.00 0.00 0.00 45 1015.8
20260503180320 11 293 11.3 25.7 0.00 0.00 0.00 46 1016.2
20260503174833 11 265 16.1 33.8 0.00 0.00 0.00 47 1016.0
20260503173321 11 287 12.9 25.7 0.00 0.00 0.00 42 1016.3
20260503171834 11 302 6.4 27.4 0.00 0.00 0.00 48 1016.4
20260503170322 11 295 12.9 25.7 0.00 0.00 0.00 45 1016.5
20260503150313 9 262 8.0 20.9 0.00 0.00 0.00 55 1017.5
20260503140313 8 249 4.8 16.1 0.00 0.00 0.00 62 1017.9
20260503130313 6 207 8.0 12.9 0.00 0.00 0.00 73 1018.5
20260503110334 2 250 3.2 8.0 0.00 0.00 0.00 81 1018.3
20260503090325 2 231 3.2 8.0 0.00 0.00 0.00 88 1017.8
20260503080351 2 238 1.6 6.4 0.00 0.00 0.00 87 1018.0
20260503071814 2 258 0.0 4.8 0.00 0.00 0.00 85 1018.0
20260503070311 3 236 1.6 4.8 0.00 0.00 0.00 85 1018.0
20260503060329 3 231 3.2 9.7 0.00 0.00 0.00 82 1018.3
20260503054840 3 205 3.2 11.3 0.00 0.00 0.00 81 1018.3
20260503053334 3 229 4.8 9.7 0.00 0.00 0.00 81 1018.4
20260503051844 3 221 4.8 8.0 0.00 0.00 0.00 80 1018.6
20260503050337 3 242 3.2 4.8 0.00 0.00 0.00 80 1018.7